Macon, GA

4:19 AM EST on February 22, 2017 (GMT -0500)
Middle Georgia Regional

Weather History for KMCN - November, 2013

Change the Weather History Date:

Thursday, November 7, 2013

  Actual Average Record
Temperature  
Mean Temperature 62 °F 58 °F  
Max Temperature 76 °F 72 °F 85 °F (1986)
Min Temperature 48 °F 45 °F 28 °F (1991)
Degree Days  
Heating Degree Days 3 7  
Month to date heating degree days 42 47  
Since 1 July heating degree days 109 150  
Cooling Degree Days 0 1  
Month to date cooling degree days 2 7  
Year to date cooling degree days 1844 2151  
Growing Degree Days 12 (Base 50)    
Moisture  
Dew Point 52 °F    
Average Humidity 73    
Maximum Humidity 100    
Minimum Humidity 45    
Precipitation  
Precipitation T in 0.10 in 0.77 in (2006)
Month to date precipitation 1.20 0.66  
Year to date precipitation 61.71 38.98  
Snow  
Snow 0.00 in 0.00 in 0.00 in (2002)
Month to date snowfall 0.0 0.0  
Since 1 July snowfall 0.0 0.0  
Since 1 September snowfall 0.0 0.0  
Snow Depth 0.00 in    
Sea Level Pressure  
Sea Level Pressure 30.09 in    
Wind  
Wind Speed 6 mph (NW)    
Max Wind Speed 16 mph    
Max Gust Speed 22 mph    
Visibility 8 miles    
Events Rain    
T = Trace of Precipitation, MM = Missing Value Source: NWS Daily Summary

Daily Weather History Graph

Daily Weather History Graph

Search for Another Location

Airport or City:

Trip Planner

Search our weather history database for the weather conditions in past years. The results will help you decide how hot, cold, wet, or windy it might be!

Date:

Astronomy

Nov. 07, 2013 Rise Set
Actual Time 6:57 AM EST 5:38 PM EST
Civil Twilight 6:31 AM EST 6:04 PM EST
Nautical Twilight 6:02 AM EST 6:33 PM EST
Astronomical Twilight 5:33 AM EST 7:02 PM EST
Moon 11:02 AM EST (11/7) 9:51 PM EST (11/7)
Length of Visible Light 11h 32m
Length of Day
10h 40m
Waxing Crescent, 22% of the Moon is Illuminated
Nov 7
Waxing Crescent
Nov 10
First Quarter
Nov 17
Full
Nov 25
Last Quarter
Dec 2
New

Hourly Weather History & Observations

Time (EST) Temp. Dew Point Humidity Pressure Visibility Wind Dir Wind Speed Gust Speed Precip Events Conditions
12:53 AM 55.0 °F 55.0 °F 100% 30.09 in 9.0 mi NW 3.5 mph - N/A   Clear
1:53 AM 55.9 °F 55.0 °F 97% 30.09 in 7.0 mi Calm Calm - N/A   Clear
2:53 AM 55.9 °F 55.0 °F 97% 30.07 in 9.0 mi Calm Calm - N/A   Clear
3:53 AM 55.9 °F 55.0 °F 97% 30.06 in 7.0 mi Calm Calm - N/A   Clear
4:53 AM 55.0 °F 55.0 °F 100% 30.04 in 6.0 mi Calm Calm - N/A   Clear
5:53 AM 55.0 °F 55.0 °F 100% 30.05 in 8.0 mi Calm Calm - N/A   Clear
6:53 AM 55.9 °F 55.0 °F 97% 30.05 in 8.0 mi Calm Calm - N/A   Overcast
7:53 AM 55.9 °F 55.9 °F 100% 30.07 in 8.0 mi Calm Calm - N/A   Mostly Cloudy
8:53 AM 61.0 °F 60.1 °F 97% 30.08 in 10.0 mi Calm Calm - N/A   Overcast
9:48 AM 62.6 °F 60.8 °F 94% 30.10 in 4.0 mi NW 8.1 mph - 0.00 in Rain Light Rain
9:53 AM 62.1 °F 61.0 °F 96% 30.10 in 4.0 mi NW 8.1 mph - 0.00 in   Drizzle
10:26 AM 62.6 °F 60.8 °F 94% 30.10 in 2.5 mi West 6.9 mph - 0.00 in   Drizzle
10:53 AM 63.0 °F 62.1 °F 97% 30.10 in 4.0 mi WNW 8.1 mph - 0.00 in   Overcast
11:13 AM 64.4 °F 62.6 °F 94% 30.10 in 8.0 mi WNW 8.1 mph - N/A   Overcast
11:53 AM 66.0 °F 62.1 °F 87% 30.08 in 10.0 mi WNW 5.8 mph - N/A   Overcast
12:08 PM 66.2 °F 60.8 °F 83% 30.09 in 10.0 mi NW 6.9 mph - N/A   Overcast
12:53 PM 71.1 °F 60.1 °F 68% 30.05 in 10.0 mi NW 11.5 mph - N/A   Mostly Cloudy
1:53 PM 71.1 °F 59.0 °F 66% 30.04 in 10.0 mi WNW 9.2 mph - N/A   Mostly Cloudy
2:53 PM 75.0 °F 55.0 °F 50% 30.02 in 10.0 mi NW 10.4 mph - N/A   Partly Cloudy
3:53 PM 72.0 °F 51.1 °F 48% 30.04 in 10.0 mi NNW 11.5 mph - N/A   Clear
4:53 PM 66.9 °F 45.0 °F 45% 30.06 in 10.0 mi NW 10.4 mph - N/A   Clear
5:53 PM 60.1 °F 39.9 °F 47% 30.09 in 10.0 mi NNW 9.2 mph - N/A   Clear
6:53 PM 57.9 °F 37.0 °F 46% 30.12 in 10.0 mi NW 11.5 mph - N/A   Clear
7:53 PM 54.0 °F 37.0 °F 53% 30.13 in 10.0 mi NNW 11.5 mph - N/A   Clear
8:53 PM 52.0 °F 37.0 °F 57% 30.14 in 10.0 mi NW 11.5 mph - N/A   Clear
9:53 PM 51.1 °F 35.1 °F 54% 30.15 in 10.0 mi NW 8.1 mph - N/A   Clear
10:53 PM 50.0 °F 34.0 °F 54% 30.16 in 10.0 mi NNW 6.9 mph - N/A   Clear
11:53 PM 48.0 °F 35.1 °F 61% 30.17 in 10.0 mi NNW 8.1 mph - N/A   Clear